User: anonymous   Login
Location: Drummondville
(45.8830°N, 72.4830°W)
Time: 16:52:09
(UTC-04:00)
Language:

Vanguard 2 - Orbit

View from above orbital plane
View from above orbital plane
View from above satellite
View from above satellite

Ground track
Ground track

The orbit data is extracted from the following two-line orbital elements,

1 00011U 59001A   18114.19527094 -.00000021  00000-0 -15465-4 0  9999
2 00011  32.8652 123.2232 1468524 139.0527 233.0187 11.85542335523508
Epoch (UTC): 24 April 2018 04:41:11
Eccentricity: 0.1468524
inclination: 32.8652°
perigee height: 553 km
apogee height: 2939 km
right ascension of ascending node: 123.2232°
argument of perigee: 139.0527°
revolutions per day: 11.85542335
mean anomaly at epoch: 233.0187°
orbit number at epoch: 52350

The dashed part of the orbit path shows where the satellite is in the earth's shadow,  

DLR